Regional Weather Roundup
Issued by NWS

Home | Current Version | Previous Version | Graphics & Text | Print | Product List | Glossary On
Versions: 1 2 3 4 5 6 7 8 9 10 11 12 13 14 15 16 17 18 19 20 21 22 23 24 25 26 27 28 29 30 31 32 33 34 35 36 37 38 39 40 41 42 43 44 45 46 47 48 49 50
000
ASUS43 KLSX 271407
RWRMO

WEATHER SUMMARY FOR MISSOURI
NATIONAL WEATHER SERVICE SPRINGFIELD MO
800 AM CST MON FEB 27 2017

NOTE: "FAIR" INDICATES FEW OR NO CLOUDS BELOW 12,000 FEET WITH NO
       SIGNIFICANT WEATHER AND/OR OBSTRUCTIONS TO VISIBILITY.
       CURRENT SKY AND/OR WEATHER CONDITIONS ARE NOT AVAILABLE FOR
       CHILLICOTHE AND FARMINGTON.

MOZ001>031-035>038-043-044-053-054-271500-
...NORTHERN AND WESTERN MISSOURI...

CITY           SKY/WX    TMP DP  RH WIND       PRES   REMARKS
KANSAS CTY INT MOSUNNY   33  32  96 E6        30.02S FOG     WCI  28
KANSAS C DTWN  CLOUDY    29  29 100 NE3       30.04S FOG
LEE`S SUMMIT   SUNNY     33  33 100 SE6       30.04R WCI  28
ST JOSEPH      FOG       27  25  92 S3        30.04R VSB<1/4
CHILLICOTHE      N/A     28  27  96 SE3       30.08R
KIRKSVILLE     FOG       28  28 100 CALM      30.08R VSB 1/4

$$
MOZ066>068-077>081-088>096-101>105-271500-
...SOUTHWEST MISSOURI...

CITY           SKY/WX    TMP DP  RH WIND       PRES   REMARKS
SPRINGFIELD    SUNNY     41  30  65 SE10      30.04R
JOPLIN         SUNNY     38  31  76 CALM      30.03R
BRANSON        SUNNY     39  32  75 E5        30.05S

$$
MOZ032>034-039>042-045>050-055>058-069>072-271500-
...CENTRAL MISSOURI...

CITY           SKY/WX    TMP DP  RH WIND       PRES   REMARKS
COLUMBIA       SUNNY     36  34  92 SE8       30.08R WCI  30
JEFFERSON CITY MOSUNNY   29  29 100 CALM      30.10R FOG
ROLLA          SUNNY     39  33  79 S8        30.07R
SEDALIA        MOSUNNY   33  32  96 SE5       30.08R FOG     WCI  29
WHITEMAN AFB   SUNNY     31  31 100 S3        30.06R FOG
WARRENSBURG      N/A     27  25  93 CALM      30.06R FOG
OSAGE BEACH    SUNNY     34  33  96 CALM      30.08R

$$
MOZ051-052-059>065-271500-
...EAST CENTRAL MISSOURI...

CITY           SKY/WX    TMP DP  RH WIND       PRES   REMARKS
ST LOUIS INTL  MOSUNNY   44  35  70 SE8       30.12R
SPIRIT OF STL  SUNNY     35  34  96 CALM      30.12R
ST CHARLES     SUNNY     42  37  82 E6        30.12R

$$
MOZ072>076-082>087-097>100-106>115-271500-
...SOUTH CENTRAL AND SOUTHEAST MISSOURI...

CITY           SKY/WX    TMP DP  RH WIND       PRES   REMARKS
CAPE GIRARDEAU SUNNY     47  41  80 SE6       30.14R
FARMINGTON     SUNNY     41  37  86 S5        30.12R
POPLAR BLUFF   SUNNY     48  44  86 E3        30.12R
WEST PLAINS    SUNNY     40  34  79 CALM      30.09R

$$


USA.gov is the U.S. government's official web portal to all federal, state and local government web resources and services.